Wind_Speed
36 37 37 37 37 37 37 38 38 38 38 39 40 41 42 42 42 42 42 42 42 43 44 45 45 45 46 47 47 47 47 47 45 44 45 45 46 46 46 45 44 44 45
36 36 36 36 37 37 37 36 36 37 38 38 39 40 41 42 43 43 43 42 43 43 44 44 45 45 46 46 47 47 47 47 47 47 46 46 46 47 47 46 45 44 45
33 34 34 35 35 36 36 36 36 37 37 38 39 39 40 40 41 42 43 43 43 43 44 45 45 45 46 47 47 48 48 47 47 47 48 48 48 48 48 48 46 46 46
31 32 32 33 34 35 35 35 36 36 37 37 38 38 39 39 40 41 42 43 43 44 44 45 45 45 46 47 48 48 48 49 48 48 48 48 49 49 49 49 49 48 48
31 30 30 31 32 33 34 34 35 36 36 37 37 37 38 38 39 40 41 42 43 43 44 44 45 45 46 47 48 49 49 49 50 49 48 47 48 48 48 49 49 49 49
29 29 29 29 30 31 33 34 35 36 36 36 36 37 37 37 38 38 39 40 41 41 42 43 44 44 45 46 47 48 49 49 50 50 49 48 48 48 48 48 48 49 49
28 28 28 29 30 31 32 33 34 35 35 35 35 36 36 36 37 37 38 38 39 39 40 41 42 43 43 43 45 46 48 49 49 49 49 48 48 48 48 48 48 48 48
27 26 27 28 29 30 32 32 33 34 34 35 35 34 35 35 35 35 36 36 37 37 38 39 40 41 41 42 43 44 45 46 46 47 47 47 47 47 47 47 47 47 48
26 26 26 27 28 29 30 31 32 32 32 33 33 33 33 33 33 33 34 34 35 35 36 37 37 38 39 39 40 41 42 42 43 44 45 45 45 45 45 45 45 45 45
25 25 26 26 26 27 28 29 29 30 30 30 30 31 31 31 32 32 32 33 33 33 34 35 35 35 36 36 36 37 38 39 40 40 42 42 42 41 41 41 41 41 41
25 25 25 26 26 26 27 27 28 28 29 29 30 30 31 30 31 31 31 32 32 32 32 32 32 32 33 34 34 34 35 36 37 37 38 38 38 38 38 38 38 39 39
24 24 25 26 26 26 26 26 27 27 27 28 29 29 29 29 29 29 29 29 29 29 29 29 30 30 31 32 32 33 33 34 34 35 35 35 35 35 35 36 36 36 36
23 23 24 24 25 25 25 26 26 26 27 27 28 28 27 27 27 27 27 26 26 26 27 27 27 28 29 29 29 30 30 30 31 31 32 32 33 33 33 34 33 33 32
22 23 23 23 24 24 24 24 24 24 25 25 26 26 25 25 25 26 26 25 25 25 25 25 26 26 27 27 27 27 27 27 27 27 28 28 29 30 30 31 30 29 29
22 22 22 22 22 22 22 22 22 22 23 23 24 24 24 24 24 25 25 25 24 24 25 25 25 25 25 26 26 26 26 25 26 26 27 27 27 28 28 29 28 28 28
20 20 20 20 20 20 20 21 21 22 22 22 23 23 24 24 23 23 23 24 24 24 24 24 23 23 24 24 24 25 25 25 26 26 26 26 26 25 25 25 26 26 26
18 18 18 18 19 19 19 19 20 21 21 21 22 22 22 21 22 22 22 22 22 22 22 22 21 21 21 21 22 23 23 24 24 24 24 24 24 23 23 23 23 24 23
17 17 17 17 17 17 17 18 18 18 18 18 19 19 19 19 20 20 20 20 20 20 20 20 20 20 21 21 21 21 21 21 21 21 21 21 21 20 20 21 21 21 21
15 15 15 15 15 15 15 15 15 16 16 17 17 17 17 17 17 17 18 18 18 18 18 18 18 19 19 19 19 19 19 19 19 18 18 18 18 18 18 18 19 19 19
14 14 14 14 14 14 14 14 14 15 15 16 16 16 16 15 15 15 15 15 16 16 16 16 16 16 16 17 17 17 17 17 17 17 16 16 16 17 17 17 17 17 18
13 13 13 12 12 12 13 13 14 14 15 15 14 14 14 14 14 14 14 14 14 14 15 15 15 15 15 15 15 15 15 15 15 15 15 15 15 15 15 15 16 16 16
12 12 11 12 12 12 12 12 13 13 13 12 12 12 12 13 13 12 12 13 13 13 13 14 14 14 15 14 14 13 14 14 13 13 13 13 13 13 13 13 13 14 14
12 12 12 12 12 12 12 11 11 11 11 11 11 11 11 11 11 11 11 11 11 12 13 13 13 13 13 12 12 12 12 12 12 12 11 11 11 11 11 11 11 12 12
12 12 12 12 12 12 12 11 11 11 11 11 11 10 10 10 10 10 10 10 10 11 11 12 12 12 11 11 11 11 11 10 10 10 10 10 10 10 10 10 10 9 9
12 12 12 12 12 12 11 11 11 10 10 10 10 10 9 9 9 9 9 9 10 10 10 10 10 10 9 9 9 9 9 9 9 9 9 9 9 9 9 9 8 8 8
12 11 11 12 12 11 11 11 11 10 10 10 10 10 9 9 9 9 10 10 10 10 10 9 9 9 9 9 8 8 8 9 8 8 8 8 8 8 7 7 7 7 7
Wind_Direction
262 260 258 258 259 259 259 258 258 258 258 258 259 259 259 258 258 258 259 260 260 261 261 261 260 260 259 258 258 259 260 261 262 262 264 264 265 266 267 268 267 268 269
262 261 259 257 258 258 258 258 258 258 260 260 261 261 261 260 259 258 259 260 261 262 262 261 261 260 259 258 258 259 260 260 261 262 264 265 265 267 268 267 267 269 270
263 262 260 258 258 258 259 258 258 259 260 261 262 262 261 261 261 260 260 261 262 263 263 263 262 261 259 258 258 259 259 259 261 263 264 265 266 268 268 269 268 270 271
262 262 262 260 260 259 259 260 260 261 261 262 263 263 262 262 262 262 261 262 263 264 264 263 263 262 261 260 259 258 258 259 261 262 264 265 266 267 268 269 269 270 272
262 262 262 261 260 260 260 261 262 262 262 263 263 264 264 263 264 264 263 264 265 265 265 265 265 264 262 262 260 259 259 260 260 262 264 265 266 266 267 269 269 271 272
263 261 262 262 262 263 263 264 264 264 264 264 265 266 266 266 266 266 266 266 266 266 266 266 265 263 262 262 262 261 260 260 261 263 264 265 266 266 267 269 271 272 273
263 262 264 265 264 264 264 266 266 265 265 266 268 268 268 267 267 267 267 267 266 266 266 267 266 264 263 263 263 262 262 262 262 262 264 265 265 265 267 270 271 272 273
264 264 266 267 266 266 266 267 267 266 266 266 267 267 267 267 267 268 267 267 267 267 267 267 267 265 263 263 263 263 263 263 263 263 263 265 265 265 267 269 271 272 273
266 266 267 269 268 267 268 268 267 268 267 266 265 266 267 267 268 268 267 267 268 268 268 269 268 266 265 265 265 265 265 264 263 264 264 266 267 267 267 269 270 271 273
268 268 269 269 269 268 268 268 268 268 267 266 266 267 267 268 268 269 268 268 269 269 270 270 269 268 266 267 267 266 266 265 266 265 266 267 267 267 268 269 270 271 272
270 270 270 269 270 269 269 269 269 268 268 266 267 267 267 268 269 270 270 270 270 270 270 270 270 269 268 267 267 267 267 267 266 266 267 267 267 268 269 270 270 271 271
270 271 272 271 270 271 271 271 270 269 268 267 267 268 268 269 269 270 271 271 271 271 271 271 271 270 269 268 268 268 268 267 266 266 266 267 268 268 269 270 271 272 271
272 272 273 273 273 272 271 271 270 269 268 268 268 268 269 268 268 269 270 270 271 271 272 272 272 272 271 270 269 269 268 268 267 267 267 267 268 269 270 271 271 270 269
272 274 275 274 275 275 273 271 270 268 268 269 269 269 268 269 268 268 269 270 271 271 272 272 272 273 272 271 270 270 269 268 267 268 268 268 268 269 270 269 269 268 267
275 276 276 275 273 273 272 270 268 267 268 269 270 269 268 269 269 269 268 269 270 271 271 272 271 272 272 272 270 270 269 268 267 268 270 270 271 270 269 268 267 267 268
278 278 276 274 273 272 270 268 267 268 268 270 270 271 270 270 270 270 270 270 270 271 272 272 271 271 272 272 270 270 271 271 270 271 271 271 271 271 269 267 267 268 269
281 279 278 277 274 273 270 268 268 268 269 270 271 270 269 270 269 270 271 271 271 271 271 271 272 273 274 274 274 274 275 275 274 274 273 272 272 270 268 267 268 269 270
282 280 279 278 275 272 270 268 267 267 267 268 270 269 269 271 272 271 271 270 271 271 271 271 273 274 274 275 277 277 278 279 278 278 276 274 272 269 268 269 270 271 272
285 282 279 277 275 272 270 267 267 267 266 268 270 270 270 271 273 273 272 271 270 270 272 273 273 273 273 274 277 278 280 282 281 279 277 274 271 269 269 272 273 273 273
288 283 278 278 276 272 268 266 267 267 268 271 271 270 271 272 273 273 273 271 270 270 272 273 273 272 272 273 274 276 279 280 281 280 278 276 275 274 273 273 275 276 274
291 284 280 279 277 273 270 268 267 269 271 272 272 272 271 271 273 273 272 273 273 273 272 272 273 273 273 274 275 276 277 279 281 282 279 277 278 277 276 276 276 277 276
291 285 281 280 279 276 274 270 269 271 272 271 270 272 273 273 271 271 274 275 275 274 274 275 274 273 273 274 275 276 277 279 282 283 280 279 279 277 277 278 278 278 280
291 285 283 281 279 276 274 272 271 271 271 269 270 271 272 272 270 272 275 277 277 276 277 277 277 275 272 271 273 275 277 279 282 284 284 282 281 281 282 280 279 280 283
293 287 283 281 279 277 275 272 270 269 268 267 267 269 270 270 271 274 277 279 279 279 278 278 276 274 271 271 272 275 276 278 280 281 281 282 281 282 282 281 280 282 286
295 290 284 281 279 277 273 271 269 266 265 265 267 268 268 270 272 275 278 280 281 280 278 277 276 273 271 272 272 273 274 277 281 281 280 281 279 277 278 278 278 283 286
292 291 287 281 279 277 274 270 266 264 263 265 266 266 268 272 273 276 277 277 280 280 277 273 272 271 272 272 270 269 272 275 276 274 275 277 277 276 275 274 276 281 286
Height
5599 5600 5601 5603 5604 5605 5606 5607 5608 5609 5610 5612 5613 5614 5615 5615 5616 5617 5619 5620 5621 5622 5624 5625 5626 5627 5628 5629 5631 5633 5634 5635 5637 5638 5638 5639 5640 5640 5640 5640 5640 5640 5641
5588 5589 5590 5592 5594 5595 5596 5597 5598 5599 5600 5601 5602 5603 5603 5604 5605 5606 5607 5608 5609 5610 5611 5612 5613 5614 5615 5617 5619 5620 5622 5623 5625 5626 5626 5627 5627 5628 5628 5628 5628 5628 5628
5578 5579 5580 5582 5583 5585 5586 5587 5588 5589 5590 5591 5591 5592 5592 5593 5593 5594 5595 5596 5597 5598 5599 5600 5601 5601 5603 5604 5606 5607 5609 5610 5611 5613 5614 5614 5615 5615 5615 5616 5616 5616 5615
5569 5570 5571 5572 5573 5575 5576 5577 5578 5579 5579 5580 5580 5581 5581 5582 5582 5582 5583 5584 5585 5586 5586 5587 5588 5588 5590 5591 5592 5594 5595 5597 5598 5599 5600 5601 5602 5602 5602 5602 5603 5603 5603
5560 5561 5561 5562 5563 5565 5566 5567 5567 5568 5569 5569 5569 5570 5570 5570 5571 5571 5572 5572 5573 5574 5574 5575 5575 5576 5576 5577 5578 5580 5581 5583 5584 5585 5586 5587 5588 5588 5589 5589 5589 5589 5589
5551 5552 5553 5553 5554 5555 5556 5556 5557 5558 5558 5558 5559 5559 5559 5559 5560 5560 5560 5561 5561 5561 5562 5562 5563 5563 5564 5564 5565 5566 5567 5569 5570 5572 5573 5574 5574 5575 5575 5575 5575 5576 5576
5542 5543 5544 5545 5545 5546 5546 5547 5547 5547 5547 5548 5548 5548 5549 5549 5549 5549 5549 5549 5549 5550 5550 5550 5550 5551 5551 5551 5552 5553 5554 5555 5556 5558 5559 5560 5561 5562 5562 5562 5562 5561 5561
5534 5535 5535 5536 5536 5536 5536 5537 5537 5537 5537 5537 5538 5538 5538 5538 5538 5538 5538 5538 5539 5538 5538 5538 5538 5538 5539 5539 5539 5540 5541 5542 5543 5545 5546 5547 5547 5547 5548 5548 5547 5547 5547
5526 5527 5527 5527 5527 5527 5527 5527 5527 5527 5527 5528 5528 5528 5528 5528 5528 5528 5528 5528 5528 5528 5527 5527 5527 5527 5527 5527 5528 5528 5529 5530 5530 5531 5532 5533 5533 5534 5534 5533 5534 5534 5534
5519 5519 5519 5518 5518 5518 5518 5518 5518 5518 5518 5518 5519 5519 5519 5519 5519 5518 5518 5518 5518 5518 5517 5517 5516 5516 5516 5516 5516 5516 5517 5517 5518 5519 5519 5520 5521 5521 5521 5521 5521 5521 5520
5511 5511 5511 5510 5510 5510 5509 5509 5509 5509 5509 5509 5510 5510 5510 5510 5509 5509 5509 5508 5508 5507 5507 5506 5506 5506 5505 5505 5505 5506 5506 5506 5507 5507 5508 5508 5509 5509 5510 5509 5509 5508 5508
5503 5503 5503 5502 5502 5502 5501 5501 5501 5501 5501 5501 5501 5501 5501 5501 5501 5500 5500 5499 5498 5498 5497 5497 5497 5496 5496 5496 5495 5495 5495 5495 5496 5496 5497 5497 5498 5499 5499 5498 5498 5497 5496
5496 5496 5495 5495 5494 5494 5493 5493 5493 5493 5493 5493 5493 5493 5493 5493 5493 5492 5492 5491 5490 5490 5489 5489 5488 5488 5487 5487 5487 5486 5486 5486 5486 5487 5487 5488 5488 5488 5488 5487 5487 5486 5486
5489 5488 5488 5487 5486 5486 5486 5485 5485 5485 5485 5485 5485 5485 5485 5485 5484 5484 5484 5483 5483 5482 5482 5481 5481 5480 5479 5479 5479 5478 5478 5478 5477 5478 5478 5478 5477 5477 5477 5477 5477 5477 5477
5481 5481 5480 5480 5479 5479 5478 5478 5478 5478 5478 5478 5478 5477 5477 5477 5477 5476 5476 5476 5475 5475 5474 5474 5473 5473 5472 5472 5471 5471 5470 5470 5470 5469 5469 5469 5469 5468 5468 5468 5468 5468 5468
5475 5474 5473 5473 5472 5472 5472 5471 5471 5471 5471 5470 5470 5470 5470 5469 5469 5469 5468 5468 5468 5468 5467 5467 5466 5466 5465 5465 5464 5464 5463 5463 5462 5461 5461 5460 5460 5460 5459 5459 5459 5459 5459
5469 5468 5467 5466 5466 5465 5465 5465 5465 5464 5464 5463 5463 5463 5463 5462 5462 5462 5461 5461 5461 5460 5460 5460 5459 5459 5459 5458 5458 5457 5456 5455 5454 5453 5453 5452 5452 5452 5452 5452 5451 5451 5451
5463 5462 5461 5460 5460 5459 5458 5458 5458 5458 5458 5457 5457 5457 5456 5456 5455 5455 5455 5454 5454 5454 5454 5453 5453 5453 5452 5452 5451 5451 5450 5449 5448 5447 5446 5445 5445 5445 5445 5445 5444 5444 5444
5458 5457 5456 5455 5454 5453 5453 5452 5452 5452 5452 5452 5452 5451 5451 5450 5450 5449 5449 5448 5448 5448 5448 5447 5447 5447 5446 5446 5446 5445 5444 5443 5442 5441 5440 5439 5439 5439 5439 5438 5438 5438 5438
5453 5452 5451 5450 5449 5449 5448 5448 5448 5447 5447 5447 5446 5446 5445 5445 5444 5444 5443 5443 5443 5443 5442 5442 5442 5441 5441 5441 5440 5440 5439 5438 5437 5436 5435 5435 5434 5434 5433 5433 5433 5432 5432
5449 5448 5447 5446 5445 5444 5444 5443 5443 5443 5442 5442 5441 5441 5440 5440 5440 5439 5439 5439 5438 5438 5438 5437 5437 5437 5436 5436 5435 5435 5434 5433 5432 5432 5431 5430 5430 5429 5429 5428 5428 5427 5427
5446 5444 5443 5442 5441 5441 5440 5439 5439 5438 5438 5438 5437 5437 5436 5436 5435 5435 5435 5435 5434 5434 5434 5433 5433 5433 5432 5432 5431 5431 5430 5429 5429 5428 5427 5426 5426 5425 5425 5424 5424 5423 5423
5442 5441 5440 5439 5438 5437 5436 5436 5435 5435 5434 5434 5433 5433 5433 5432 5432 5432 5431 5431 5431 5430 5430 5429 5429 5429 5428 5428 5427 5427 5427 5426 5425 5424 5424 5423 5422 5422 5421 5421 5420 5420 5419
5439 5437 5436 5435 5434 5434 5433 5432 5432 5431 5431 5431 5430 5430 5429 5429 5429 5428 5428 5428 5427 5427 5426 5426 5426 5425 5425 5424 5424 5423 5423 5423 5422 5421 5421 5420 5419 5419 5418 5418 5417 5417 5416
5435 5434 5433 5432 5431 5430 5429 5429 5428 5428 5428 5427 5427 5427 5427 5426 5426 5425 5425 5425 5424 5424 5423 5423 5422 5422 5421 5421 5420 5420 5420 5419 5419 5418 5418 5417 5417 5416 5416 5416 5415 5415 5414
5431 5430 5429 5428 5427 5426 5426 5425 5425 5424 5424 5424 5424 5424 5424 5423 5423 5422 5422 5422 5421 5421 5420 5420 5419 5419 5419 5418 5418 5417 5417 5417 5416 5416 5415 5415 5415 5414 5414 5413 5413 5413 5412